Showing default

TJS-17, 63524

Orbit data source: Space-Track

TJS-17, 63524 is a payload satellite owned by PLA SSF (CN) in GEO that was launched on Thu, 10 Apr 2025 UTC via a CHANG ZHENG 3B launch vehicle from the Xichang Space Center, China (XSC). Payload-class satellites include a variety of spacecraft equipped with specific instruments for various scientific and technological missions. These include communications satellites like Starlink; space stations such as the ISS; scientific satellites like the Hubble; Earth observation satellites from companies like Planet Labs, Umbra, and HawkEye 360; GPS; miniature CubeSats for education and research; and military/defense satellites.

Not visible in the next 10 days
Identifier
63524, 2025-073A
Orbit
GEO
Country
Flag of CNCN / PRC
Related business
Manufacturer
SISE
Mission
Operational Defense Sigint
Bus & Motor
FY-4?, LAE
Mass
~5,000 kg wet, ~2,500 kg dry
Launch date (UTC)
2025-04-10 (5 months ago)
Launch vehicle
CHANG ZHENG 3B
Launch site
Xichang Space Center, China (XSC)
Object type
Payload
Rocket body
Debris
Shape & HBR
Box + 2 Pan, 15.0 m
Radar Cross Section
34.063 m², Large (>1 m²)

Expand to show TLE details & history
Last TLE update: 5 days ago

TLE from 5 days ago
0 TJS-17
1 63524U 25073A   25254.67618065 -.00000074  00000-0  00000+0 0  9995
2 63524   0.3392  83.1677 0001130 155.8796 159.7435  1.00271094  1499
Epoch: 2025-09-11T16:13Z
TLE epoch observation values (Epoch: 2025-09-11T16:13:42.008Z)
Latitude
-0.25445°
Longitude
164.42359°
Altitude
35,790.773 km
Speed
3.074 km/s
True Right ascension
02h 35m 08s
True Declination
0° 15' 15"
Sunlit
Object was in daylight at epoch
Visualization orbit readout
Latitude
Unknown
Longitude
Unknown
Altitude
Unknown
Speed
Unknown
Apparent Right ascension
Unknown
Apparent Declination
Unknown
Sunlit
N/A
Visualization observer readout
Local Sidereal Time
12:27:21
Azimuth
Unknown
Elevation
Unknown
Doppler factor
Unknown
Orbital elements
Apogee altitude
35,792.624 km
Perigee altitude
35,783.094 km
Semi-major axis
42,165.996 km
Eccentricity
0.00011
Inclination
0.3392°
RAAN
83.1677°
Arg. of periapsis
155.8796°
True anomaly
159.74798°
Mean anomaly
159.7435°
Eccentric anomaly
159.74574°
Mean motion
0.25067 °/min
Orbital period
1,436.16 mins
BSTAR
0
Loading maneuver chart data...
Computing Atmospheric mass density...
Loading historical data...
Loading historical data...
Loading historical data...
Loading historical data...
Loading historical data...
Loading historical data...
Loading historical data...
Other satellites on launch #73 in the year 2025 (2025-04-10 UTC)

Documentation

Showing up to 5 results
|